,,,PA_Meas_PMT16A,,PR_Meas_QMR101_102,,RH_Meas_QMH101,,SR_Meas_QMS101,,TA_Meas_QMH101,,GenWind,,GenWind,
date,time,status,PA,status,PR,status,RH,status,SR,status,TA,status,DirAvg,status,SpdAvg,
2009-03-02, 00:00:05,VALID,1008.69,VALID,0,VALID,91.7226,VALID,0,VALID,25.0388,VALID,60,VALID,0.649609,
2009-03-02, 00:01:05,VALID,1008.73,VALID,0,VALID,91.6768,VALID,0,VALID,25.0388,VALID,82,VALID,0.683984,
2009-03-02, 00:02:05,VALID,1008.68,VALID,0,VALID,91.6692,VALID,0,VALID,25.0388,VALID,57,VALID,1.23203,
2009-03-02, 00:03:05,VALID,1008.65,VALID,0,VALID,91.6616,VALID,0,VALID,25.0388,VALID,62,VALID,1.04766,
2009-03-02, 00:04:05,VALID,1008.67,VALID,0,VALID,91.6387,VALID,0,VALID,25.0583,VALID,69,VALID,0.809375,
2009-03-02, 00:05:05,VALID,1008.66,VALID,0,VALID,91.5853,VALID,0,VALID,25.0564,VALID,53,VALID,0.494141,
2009-03-02, 00:06:05,VALID,1008.67,VALID,0,VALID,91.57,VALID,0,VALID,25.0778,VALID,68,VALID,0.876953,
2009-03-02, 00:07:05,VALID,1008.66,VALID,0,VALID,91.5319,VALID,0,VALID,25.0759,VALID,66,VALID,1.07148,
2009-03-02, 00:08:05,VALID,1008.66,VALID,0,VALID,91.509,VALID,0,VALID,25.1167,VALID,40,VALID,0.752344,
2009-03-02, 00:09:05,VALID,1008.63,VALID,0,VALID,91.4862,VALID,0,VALID,25.1167,VALID,72,VALID,0.468359,
2009-03-02, 00:10:05,VALID,1008.62,VALID,0,VALID,91.4557,VALID,0,VALID,25.1362,VALID,40,VALID,0.354297,
2009-03-02, 00:11:05,VALID,1008.61,VALID,0,VALID,91.448,VALID,0,VALID,25.1167,VALID,68,VALID,0.718359,
2009-03-02, 00:12:05,VALID,1008.6,VALID,0,VALID,91.4557,VALID,0,VALID,25.1167,VALID,76,VALID,0.357031,
2009-03-02, 00:13:05,VALID,1008.57,VALID,0,VALID,91.4252,VALID,0,VALID,25.1167,VALID,49,VALID,0.617188,
2009-03-02, 00:14:05,VALID,1008.55,VALID,0,VALID,91.4328,VALID,0,VALID,25.1148,VALID,62,VALID,0.848047,
2009-03-02, 00:15:05,VALID,1008.53,VALID,0,VALID,91.4328,VALID,0,VALID,25.1557,VALID,82,VALID,1.36641,
2009-03-02, 00:16:05,VALID,1008.55,VALID,0,VALID,91.387,VALID,0,VALID,25.1752,VALID,53,VALID,0.632031,
2009-03-02, 00:17:05,VALID,1008.54,VALID,0,VALID,91.3184,VALID,0,VALID,25.1752,VALID,79,VALID,0.583594,
2009-03-02, 00:18:05,VALID,1008.51,VALID,0,VALID,91.2879,VALID,0,VALID,25.1752,VALID,65,VALID,0.442187,
2009-03-02, 00:19:05,VALID,1008.51,VALID,0,VALID,91.2955,VALID,0,VALID,25.1343,VALID,78,VALID,0.686719,
2009-03-02, 00:20:05,VALID,1008.54,VALID,0,VALID,91.2955,VALID,0,VALID,25.1538,VALID,55,VALID,0,
2009-03-02, 00:21:05,VALID,1008.52,VALID,0,VALID,91.3413,VALID,0,VALID,25.1538,VALID,78,VALID,1.05508,
2009-03-02, 00:22:05,VALID,1008.54,VALID,0,VALID,91.3489,VALID,0,VALID,25.1538,VALID,71,VALID,0.927344,
2009-03-02, 00:23:05,VALID,1008.51,VALID,0,VALID,91.326,VALID,0,VALID,25.1752,VALID,64,VALID,0.479688,
2009-03-02, 00:24:05,VALID,1008.51,VALID,0,VALID,91.326,VALID,0,VALID,25.1947,VALID,101,VALID,0.737891,
2009-03-02, 00:25:05,VALID,1008.49,VALID,0,VALID,91.2955,VALID,0,VALID,25.1947,VALID,93,VALID,0.696094,
2009-03-02, 00:26:05,VALID,1008.48,VALID,0,VALID,91.3108,VALID,0,VALID,25.1928,VALID,80,VALID,0.623438,
2009-03-02, 00:27:05,VALID,1008.51,VALID,0,VALID,91.2879,VALID,0,VALID,25.1928,VALID,73,VALID,0.489062,
2009-03-02, 00:28:05,VALID,1008.49,VALID,0,VALID,91.2803,VALID,0,VALID,25.2142,VALID,75,VALID,0.075,
2009-03-02, 00:29:05,VALID,1008.46,VALID,0,VALID,91.265,VALID,0,VALID,25.2142,VALID,75,VALID,0,
2009-03-02, 00:30:05,VALID,1008.43,VALID,0,VALID,91.2803,VALID,0,VALID,25.1928,VALID,57,VALID,0.573047,
2009-03-02, 00:31:05,VALID,1008.44,VALID,0,VALID,91.2879,VALID,0,VALID,25.1928,VALID,66,VALID,0.582031,
2009-03-02, 00:32:05,VALID,1008.41,VALID,0,VALID,91.2879,VALID,0,VALID,25.1928,VALID,72,VALID,1.15859,
2009-03-02, 00:33:05,VALID,1008.4,VALID,0,VALID,91.326,VALID,0,VALID,25.1947,VALID,70,VALID,1.15781,
2009-03-02, 00:34:05,VALID,1008.4,VALID,0,VALID,91.3413,VALID,0,VALID,25.1947,VALID,81,VALID,0.592969,
2009-03-02, 00:35:05,VALID,1008.37,VALID,0,VALID,91.3718,VALID,0,VALID,25.1947,VALID,67,VALID,0.735156,
2009-03-02, 00:36:05,VALID,1008.34,VALID,0,VALID,91.387,VALID,0,VALID,25.1947,VALID,33,VALID,0.584375,
2009-03-02, 00:37:05,VALID,1008.31,VALID,0,VALID,91.4099,VALID,0,VALID,25.1733,VALID,74,VALID,0.275,
2009-03-02, 00:38:05,VALID,1008.34,VALID,0,VALID,91.4404,VALID,0,VALID,25.1947,VALID,74,VALID,0.481641,
2009-03-02, 00:39:05,VALID,1008.29,VALID,0,VALID,91.4557,VALID,0,VALID,25.1947,VALID,30,VALID,0.315625,
2009-03-02, 00:40:05,VALID,1008.25,VALID,0,VALID,91.4557,VALID,0,VALID,25.1947,VALID,29,VALID,0.510547,
2009-03-02, 00:41:05,VALID,1008.25,VALID,0,VALID,91.4557,VALID,0,VALID,25.1752,VALID,38,VALID,0.00703125,
2009-03-02, 00:42:05,VALID,1008.21,VALID,0,VALID,91.4709,VALID,0,VALID,25.1752,VALID,32,VALID,0.00117188,
2009-03-02, 00:43:05,VALID,1008.19,VALID,0,VALID,91.4862,VALID,0,VALID,25.1752,VALID,50,VALID,0.411719,
2009-03-02, 00:44:05,VALID,1008.14,VALID,0,VALID,91.5167,VALID,0,VALID,25.1733,VALID,51,VALID,0,
2009-03-02, 00:45:05,VALID,1008.13,VALID,0,VALID,91.5319,VALID,0,VALID,25.1752,VALID,51,VALID,0,
2009-03-02, 00:46:05,VALID,1008.1,VALID,0,VALID,91.5319,VALID,0,VALID,25.1752,VALID,51,VALID,0.0507813,
2009-03-02, 00:47:05,VALID,1008.08,VALID,0,VALID,91.5548,VALID,0,VALID,25.1752,VALID,52,VALID,0.332031,
2009-03-02, 00:48:05,VALID,1008.08,VALID,0,VALID,91.57,VALID,0,VALID,25.1557,VALID,56,VALID,0.332422,
2009-03-02, 00:49:05,VALID,1008.06,VALID,0,VALID,91.6158,VALID,0,VALID,25.1343,VALID,57,VALID,0.233984,
2009-03-02, 00:50:05,VALID,1008.04,VALID,0,VALID,91.6463,VALID,0,VALID,25.1362,VALID,69,VALID,0.510547,
2009-03-02, 00:51:05,VALID,1008.01,VALID,0,VALID,91.6768,VALID,0,VALID,25.0954,VALID,67,VALID,0.182422,
2009-03-02, 00:52:05,VALID,1007.99,VALID,0,VALID,91.7226,VALID,0,VALID,25.0954,VALID,67,VALID,0.0328125,
2009-03-02, 00:53:05,VALID,1007.98,VALID,0,VALID,91.7759,VALID,0,VALID,25.0759,VALID,56,VALID,0.410937,
2009-03-02, 00:54:04,VALID,1007.93,VALID,0,VALID,91.7988,VALID,0,VALID,25.0973,VALID,54,VALID,0.518359,
2009-03-02, 00:55:04,VALID,1007.95,VALID,0,VALID,91.8446,VALID,0,VALID,25.0759,VALID,54,VALID,0.120312,
2009-03-02, 00:56:04,VALID,1007.96,VALID,0,VALID,91.8675,VALID,0,VALID,25.0973,VALID,55,VALID,0.139453,
2009-03-02, 00:57:04,VALID,1007.9,VALID,0,VALID,91.9056,VALID,0,VALID,25.0778,VALID,47,VALID,0.148047,
2009-03-02, 00:58:04,VALID,1007.9,VALID,0,VALID,91.9513,VALID,0,VALID,25.0778,VALID,31,VALID,0.327734,
2009-03-02, 00:59:04,VALID,1007.88,VALID,0,VALID,91.959,VALID,0,VALID,25.0778,VALID,38,VALID,0.1125,
2009-03-02, 01:00:04,VALID,1007.86,VALID,0,VALID,91.9895,VALID,0,VALID,25.0583,VALID,38,VALID,0,
2009-03-02, 01:01:04,VALID,1007.84,VALID,0,VALID,92.0123,VALID,0,VALID,25.0778,VALID,38,VALID,0.16875,
2009-03-02, 01:02:04,VALID,1007.81,VALID,0,VALID,92.0276,VALID,0,VALID,25.0369,VALID,42,VALID,0.419922,
2009-03-02, 01:03:04,VALID,1007.8,VALID,0,VALID,92.0428,VALID,0,VALID,25.0388,VALID,43,VALID,0.347266,
2009-03-02, 01:04:04,VALID,1007.77,VALID,0,VALID,92.0733,VALID,0,VALID,25.0583,VALID,55,VALID,0.358594,
2009-03-02, 01:05:04,VALID,1007.75,VALID,0,VALID,92.081,VALID,0,VALID,25.0388,VALID,61,VALID,0.176172,
2009-03-02, 01:06:04,VALID,1007.75,VALID,0,VALID,92.0886,VALID,0,VALID,25.0388,VALID,62,VALID,0.260938,
2009-03-02, 01:07:04,VALID,1007.75,VALID,0,VALID,92.1115,VALID,0,VALID,25.0193,VALID,62,VALID,0.0453125,
2009-03-02, 01:08:04,VALID,1007.75,VALID,0,VALID,92.142,VALID,0,VALID,25.0193,VALID,62,VALID,0.305469,
2009-03-02, 01:09:04,VALID,1007.76,VALID,0,VALID,92.1572,VALID,0,VALID,25.0193,VALID,62,VALID,0.107813,
2009-03-02, 01:10:04,VALID,1007.73,VALID,0,VALID,92.1725,VALID,0,VALID,25.0193,VALID,68,VALID,0.442187,
2009-03-02, 01:11:04,VALID,1007.71,VALID,0,VALID,92.203,VALID,0,VALID,24.9979,VALID,71,VALID,0.0597656,
2009-03-02, 01:12:04,VALID,1007.72,VALID,0,VALID,92.203,VALID,0,VALID,24.9998,VALID,71,VALID,0,
2009-03-02, 01:13:04,VALID,1007.67,VALID,0,VALID,92.203,VALID,0,VALID,24.9998,VALID,68,VALID,0.350391,
2009-03-02, 01:14:04,VALID,1007.66,VALID,0,VALID,92.2259,VALID,0,VALID,24.9979,VALID,65,VALID,0,
2009-03-02, 01:15:04,VALID,1007.67,VALID,0,VALID,92.2564,VALID,0,VALID,25.0193,VALID,65,VALID,0,
2009-03-02, 01:16:04,VALID,1007.68,VALID,0,VALID,92.2487,VALID,0,VALID,24.9998,VALID,65,VALID,0,
2009-03-02, 01:17:04,VALID,1007.63,VALID,0,VALID,92.2411,VALID,0,VALID,24.9998,VALID,65,VALID,0,
2009-03-02, 01:18:04,VALID,1007.61,VALID,0,VALID,92.2335,VALID,0,VALID,24.9998,VALID,65,VALID,0,
2009-03-02, 01:19:04,VALID,1007.6,VALID,0,VALID,92.2487,VALID,0,VALID,24.9803,VALID,65,VALID,0,
2009-03-02, 01:20:04,VALID,1007.6,VALID,0,VALID,92.2564,VALID,0,VALID,24.9998,VALID,65,VALID,0,
2009-03-02, 01:21:04,VALID,1007.61,VALID,0,VALID,92.2716,VALID,0,VALID,24.9998,VALID,63,VALID,0,
2009-03-02, 01:22:04,VALID,1007.59,VALID,0,VALID,92.2945,VALID,0,VALID,24.9998,VALID,58,VALID,0,
2009-03-02, 01:23:04,VALID,1007.58,VALID,0,VALID,92.2792,VALID,0,VALID,24.9998,VALID,39,VALID,0,
2009-03-02, 01:24:04,VALID,1007.54,VALID,0,VALID,92.2564,VALID,0,VALID,24.9608,VALID,39,VALID,0,
2009-03-02, 01:25:04,VALID,1007.54,VALID,0,VALID,92.2716,VALID,0,VALID,24.9608,VALID,39,VALID,0,
2009-03-02, 01:26:04,VALID,1007.54,VALID,0,VALID,92.2945,VALID,0,VALID,24.9627,VALID,39,VALID,0,
2009-03-02, 01:27:04,VALID,1007.5,VALID,0,VALID,92.3326,VALID,0,VALID,24.9413,VALID,39,VALID,0,
2009-03-02, 01:28:04,VALID,1007.49,VALID,0,VALID,92.3479,VALID,0,VALID,24.9218,VALID,39,VALID,0,
2009-03-02, 01:29:04,VALID,1007.46,VALID,0,VALID,92.3555,VALID,0,VALID,24.9023,VALID,39,VALID,0,
2009-03-02, 01:30:04,VALID,1007.46,VALID,0,VALID,92.3936,VALID,0,VALID,24.8615,VALID,39,VALID,0,
2009-03-02, 01:31:04,VALID,1007.43,VALID,0,VALID,92.4165,VALID,0,VALID,24.8828,VALID,39,VALID,0,
2009-03-02, 01:32:04,VALID,1007.41,VALID,0,VALID,92.4546,VALID,0,VALID,24.8828,VALID,39,VALID,0,
2009-03-02, 01:33:04,VALID,1007.4,VALID,0,VALID,92.4775,VALID,0,VALID,24.842,VALID,39,VALID,0,
2009-03-02, 01:34:04,VALID,1007.37,VALID,0,VALID,92.508,VALID,0,VALID,24.8438,VALID,39,VALID,0,
2009-03-02, 01:35:04,VALID,1007.37,VALID,0,VALID,92.5461,VALID,0,VALID,24.8244,VALID,56,VALID,0.334766,
2009-03-02, 01:36:04,VALID,1007.34,VALID,0,VALID,92.5919,VALID,0,VALID,24.8244,VALID,49,VALID,0.0269531,
2009-03-02, 01:37:04,VALID,1007.31,VALID,0,VALID,92.6605,VALID,0,VALID,24.8244,VALID,51,VALID,0.398438,
2009-03-02, 01:38:04,VALID,1007.28,VALID,0,VALID,92.6834,VALID,0,VALID,24.8049,VALID,52,VALID,0.224219,
2009-03-02, 01:39:04,VALID,1007.25,VALID,0,VALID,92.7444,VALID,0,VALID,24.7854,VALID,56,VALID,0.0378906,
2009-03-02, 01:40:04,VALID,1007.2,VALID,0,VALID,92.7597,VALID,0,VALID,24.7854,VALID,65,VALID,0.469531,
2009-03-02, 01:41:04,VALID,1007.15,VALID,0,VALID,92.813,VALID,0,VALID,24.7659,VALID,70,VALID,0.427734,
2009-03-02, 01:42:04,VALID,1007.15,VALID,0,VALID,92.8512,VALID,0,VALID,24.7659,VALID,59,VALID,0.260547,
2009-03-02, 01:43:04,VALID,1007.1,VALID,0,VALID,92.8817,VALID,0,VALID,24.7659,VALID,27,VALID,0.158594,
2009-03-02, 01:44:04,VALID,1007.11,VALID,0,VALID,92.9351,VALID,0,VALID,24.7659,VALID,357,VALID,0.167578,
2009-03-02, 01:45:04,VALID,1007.09,VALID,0,VALID,92.9351,VALID,0,VALID,24.7659,VALID,10,VALID,0,
2009-03-02, 01:46:04,VALID,1007.05,VALID,0,VALID,92.9808,VALID,0,VALID,24.7659,VALID,76,VALID,0.681641,
2009-03-02, 01:47:04,VALID,1007.03,VALID,0,VALID,93.0189,VALID,0,VALID,24.7464,VALID,79,VALID,0.498437,
2009-03-02, 01:48:04,VALID,1007.02,VALID,0,VALID,93.0113,VALID,0,VALID,24.7659,VALID,48,VALID,0.582031,
2009-03-02, 01:49:04,VALID,1006.97,VALID,0,VALID,93.0342,VALID,0,VALID,24.7269,VALID,89,VALID,0.203906,
2009-03-02, 01:50:04,VALID,1006.97,VALID,0,VALID,93.0494,VALID,0,VALID,24.7464,VALID,69,VALID,0.585156,
2009-03-02, 01:51:04,VALID,1006.94,VALID,0,VALID,93.0723,VALID,0,VALID,24.7464,VALID,63,VALID,0.0191406,
2009-03-02, 01:52:04,VALID,1006.94,VALID,0,VALID,93.0876,VALID,0,VALID,24.7464,VALID,67,VALID,0.40625,
2009-03-02, 01:53:04,VALID,1006.93,VALID,0,VALID,93.0876,VALID,0,VALID,24.7464,VALID,56,VALID,0.235547,
2009-03-02, 01:54:04,VALID,1006.89,VALID,0,VALID,93.0952,VALID,0,VALID,24.7269,VALID,80,VALID,0.421094,
2009-03-02, 01:55:04,VALID,1006.9,VALID,0,VALID,93.0952,VALID,0,VALID,24.7269,VALID,59,VALID,0.446875,
2009-03-02, 01:56:04,VALID,1006.87,VALID,0,VALID,93.1028,VALID,0,VALID,24.7269,VALID,59,VALID,0.300781,
2009-03-02, 01:57:04,VALID,1006.84,VALID,0,VALID,93.1105,VALID,0,VALID,24.7269,VALID,58,VALID,0.0613281,
2009-03-02, 01:58:04,VALID,1006.84,VALID,0,VALID,93.1181,VALID,0,VALID,24.7269,VALID,58,VALID,0.186328,
2009-03-02, 01:59:04,VALID,1006.82,VALID,0,VALID,93.1333,VALID,0,VALID,24.7074,VALID,58,VALID,0,
2009-03-02, 02:00:04,VALID,1006.8,VALID,0,VALID,93.1181,VALID,0,VALID,24.7074,VALID,63,VALID,0.473437,
2009-03-02, 02:01:04,VALID,1006.8,VALID,0,VALID,93.1257,VALID,0,VALID,24.7074,VALID,77,VALID,0.0105469,
2009-03-02, 02:02:04,VALID,1006.79,VALID,0,VALID,93.141,VALID,0,VALID,24.6666,VALID,76,VALID,0.116797,
2009-03-02, 02:03:04,VALID,1006.73,VALID,0,VALID,93.141,VALID,0,VALID,24.6471,VALID,63,VALID,0.283594,
2009-03-02, 02:04:04,VALID,1006.7,VALID,0,VALID,93.1181,VALID,0,VALID,24.6879,VALID,62,VALID,0.617578,
2009-03-02, 02:05:04,VALID,1006.66,VALID,0,VALID,93.1333,VALID,0,VALID,24.6471,VALID,56,VALID,0.822266,
2009-03-02, 02:06:04,VALID,1006.64,VALID,0,VALID,93.1333,VALID,0,VALID,24.6684,VALID,273,VALID,0.255078,
2009-03-02, 02:07:04,VALID,1006.62,VALID,0,VALID,93.141,VALID,0,VALID,24.6489,VALID,52,VALID,1.14414,
2009-03-02, 02:08:04,VALID,1006.6,VALID,0,VALID,93.1333,VALID,0,VALID,24.6489,VALID,70,VALID,0.834766,
2009-03-02, 02:09:04,VALID,1006.59,VALID,0,VALID,93.1105,VALID,0,VALID,24.6489,VALID,39,VALID,0.603516,
2009-03-02, 02:10:04,VALID,1006.59,VALID,0,VALID,93.0799,VALID,0,VALID,24.6294,VALID,49,VALID,0.798828,
2009-03-02, 02:11:04,VALID,1006.59,VALID,0,VALID,93.0571,VALID,0,VALID,24.6489,VALID,65,VALID,0.507813,
2009-03-02, 02:12:04,VALID,1006.61,VALID,0,VALID,93.0113,VALID,0,VALID,24.6489,VALID,38,VALID,0.368359,
2009-03-02, 02:13:04,VALID,1006.62,VALID,0,VALID,92.9732,VALID,0,VALID,24.6276,VALID,350,VALID,0.256641,
2009-03-02, 02:14:04,VALID,1006.62,VALID,0,VALID,92.9274,VALID,0,VALID,24.6276,VALID,59,VALID,1.13125,
2009-03-02, 02:15:04,VALID,1006.65,VALID,0,VALID,92.8588,VALID,0,VALID,24.6294,VALID,63,VALID,0.444141,
2009-03-02, 02:16:04,VALID,1006.65,VALID,0,VALID,92.7978,VALID,0,VALID,24.6294,VALID,43,VALID,0.3875,
2009-03-02, 02:17:04,VALID,1006.64,VALID,0,VALID,92.7368,VALID,0,VALID,24.6294,VALID,61,VALID,0.619531,
2009-03-02, 02:18:04,VALID,1006.64,VALID,0,VALID,92.6834,VALID,0,VALID,24.6081,VALID,47,VALID,0.23125,
2009-03-02, 02:19:04,VALID,1006.66,VALID,0,VALID,92.6376,VALID,0,VALID,24.6294,VALID,43,VALID,0.0828125,
2009-03-02, 02:20:04,VALID,1006.68,VALID,0,VALID,92.5538,VALID,0,VALID,24.6099,VALID,25,VALID,0.61875,
2009-03-02, 02:21:04,VALID,1006.7,VALID,0,VALID,92.4699,VALID,0,VALID,24.6294,VALID,37,VALID,0.285156,
2009-03-02, 02:22:04,VALID,1006.71,VALID,0,VALID,92.3936,VALID,0,VALID,24.6099,VALID,37,VALID,0,
2009-03-02, 02:23:04,VALID,1006.76,VALID,0,VALID,92.2945,VALID,0,VALID,24.6099,VALID,74,VALID,0.896875,
2009-03-02, 02:24:04,VALID,1006.77,VALID,0,VALID,92.203,VALID,0,VALID,24.6099,VALID,58,VALID,0.292188,
2009-03-02, 02:25:04,VALID,1006.72,VALID,0,VALID,92.1191,VALID,0,VALID,24.5905,VALID,84,VALID,0,
2009-03-02, 02:26:04,VALID,1006.74,VALID,0,VALID,92.081,VALID,0,VALID,24.5905,VALID,90,VALID,0,
2009-03-02, 02:27:04,VALID,1006.75,VALID,0,VALID,92.0276,VALID,0,VALID,24.5886,VALID,107,VALID,0.444531,
2009-03-02, 02:28:04,VALID,1006.72,VALID,0,VALID,91.959,VALID,0,VALID,24.5905,VALID,111,VALID,0.679688,
2009-03-02, 02:29:04,VALID,1006.7,VALID,0,VALID,91.8751,VALID,0,VALID,24.5905,VALID,107,VALID,0.465625,
2009-03-02, 02:30:04,VALID,1006.7,VALID,0,VALID,91.7988,VALID,0,VALID,24.6099,VALID,103,VALID,0.360547,
2009-03-02, 02:31:04,VALID,1006.69,VALID,0,VALID,91.7683,VALID,0,VALID,24.6099,VALID,80,VALID,0.419922,
2009-03-02, 02:32:04,VALID,1006.68,VALID,0,VALID,91.7759,VALID,0,VALID,24.6099,VALID,64,VALID,0.616016,
2009-03-02, 02:33:04,VALID,1006.66,VALID,0,VALID,91.7302,VALID,0,VALID,24.5905,VALID,77,VALID,0.588281,
2009-03-02, 02:34:04,VALID,1006.68,VALID,0,VALID,91.7378,VALID,0,VALID,24.571,VALID,63,VALID,0.560547,
2009-03-02, 02:35:04,VALID,1006.67,VALID,0,VALID,91.7607,VALID,0,VALID,24.5515,VALID,57,VALID,0.858984,
2009-03-02, 02:36:04,VALID,1006.62,VALID,0,VALID,91.7836,VALID,0,VALID,24.5515,VALID,40,VALID,0.497266,
2009-03-02, 02:37:04,VALID,1006.6,VALID,0,VALID,91.8446,VALID,0,VALID,24.532,VALID,45,VALID,0.685938,
2009-03-02, 02:38:04,VALID,1006.6,VALID,0,VALID,91.898,VALID,0,VALID,24.5125,VALID,61,VALID,0.723047,
2009-03-02, 02:39:04,VALID,1006.6,VALID,0,VALID,91.9513,VALID,0,VALID,24.4717,VALID,62,VALID,0.507031,
2009-03-02, 02:40:04,VALID,1006.6,VALID,0,VALID,92.0123,VALID,0,VALID,24.4735,VALID,73,VALID,0.410937,
2009-03-02, 02:41:04,VALID,1006.6,VALID,0,VALID,92.0428,VALID,0,VALID,24.4735,VALID,71,VALID,0.184375,
2009-03-02, 02:42:04,VALID,1006.59,VALID,0,VALID,92.0733,VALID,0,VALID,24.4345,VALID,50,VALID,0,
2009-03-02, 02:43:04,VALID,1006.64,VALID,0,VALID,92.0886,VALID,0,VALID,24.415,VALID,70,VALID,0,
2009-03-02, 02:44:04,VALID,1006.65,VALID,0,VALID,92.1267,VALID,0,VALID,24.415,VALID,68,VALID,0,
2009-03-02, 02:45:04,VALID,1006.68,VALID,0,VALID,92.1954,VALID,0,VALID,24.3956,VALID,56,VALID,0.929688,
2009-03-02, 02:46:04,VALID,1006.72,VALID,0,VALID,92.2106,VALID,0,VALID,24.3761,VALID,73,VALID,0.655078,
2009-03-02, 02:47:04,VALID,1006.74,VALID,0,VALID,92.2487,VALID,0,VALID,24.3761,VALID,69,VALID,0.135547,
2009-03-02, 02:48:04,VALID,1006.75,VALID,0,VALID,92.2869,VALID,0,VALID,24.3547,VALID,69,VALID,0,
2009-03-02, 02:49:04,VALID,1006.75,VALID,0,VALID,92.2945,VALID,0,VALID,24.3566,VALID,69,VALID,0,
2009-03-02, 02:50:04,VALID,1006.74,VALID,0,VALID,92.3174,VALID,0,VALID,24.3371,VALID,69,VALID,0,
2009-03-02, 02:51:04,VALID,1006.79,VALID,0,VALID,92.3555,VALID,0,VALID,24.3158,VALID,60,VALID,0.534375,
2009-03-02, 02:52:04,VALID,1006.78,VALID,0,VALID,92.3784,VALID,0,VALID,24.2963,VALID,55,VALID,0.741797,
2009-03-02, 02:53:04,VALID,1006.8,VALID,0,VALID,92.4089,VALID,0,VALID,24.2981,VALID,41,VALID,0.58125,
2009-03-02, 02:54:04,VALID,1006.78,VALID,0,VALID,92.4394,VALID,0,VALID,24.2981,VALID,23,VALID,0.253125,
2009-03-02, 02:55:04,VALID,1006.8,VALID,0,VALID,92.4623,VALID,0,VALID,24.2786,VALID,23,VALID,0.00117188,
2009-03-02, 02:56:04,VALID,1006.8,VALID,0,VALID,92.508,VALID,0,VALID,24.2591,VALID,67,VALID,0.6875,
2009-03-02, 02:57:04,VALID,1006.8,VALID,0,VALID,92.508,VALID,0,VALID,24.2183,VALID,67,VALID,0.279297,
2009-03-02, 02:58:04,VALID,1006.81,VALID,0,VALID,92.5538,VALID,0,VALID,24.2183,VALID,87,VALID,0.775391,
2009-03-02, 02:59:04,VALID,1006.83,VALID,0,VALID,92.5995,VALID,0,VALID,24.2183,VALID,75,VALID,0.823047,
2009-03-02, 03:00:04,VALID,1006.83,VALID,0,VALID,92.6224,VALID,0,VALID,24.261,VALID,58,VALID,0.526953,
2009-03-02, 03:01:04,VALID,1006.83,VALID,0,VALID,92.5919,VALID,0,VALID,24.2396,VALID,77,VALID,0.603125,
2009-03-02, 03:02:04,VALID,1006.81,VALID,0,VALID,92.5766,VALID,0,VALID,24.2396,VALID,88,VALID,0.442187,
2009-03-02, 03:03:04,VALID,1006.84,VALID,0,VALID,92.5538,VALID,0,VALID,24.2396,VALID,79,VALID,0.3,
2009-03-02, 03:04:04,VALID,1006.79,VALID,0,VALID,92.508,VALID,0,VALID,24.2202,VALID,61,VALID,0.321094,
2009-03-02, 03:05:04,VALID,1006.81,VALID,0,VALID,92.5156,VALID,0,VALID,24.2183,VALID,58,VALID,0.504687,
2009-03-02, 03:06:04,VALID,1006.79,VALID,0,VALID,92.508,VALID,0,VALID,24.2202,VALID,64,VALID,0.0496094,
2009-03-02, 03:07:04,VALID,1006.81,VALID,0,VALID,92.4851,VALID,0,VALID,24.2007,VALID,41,VALID,0.519922,
2009-03-02, 03:08:04,VALID,1006.83,VALID,0,VALID,92.4851,VALID,0,VALID,24.2007,VALID,42,VALID,0.402734,
2009-03-02, 03:09:04,VALID,1006.87,VALID,0,VALID,92.4851,VALID,0,VALID,24.1404,VALID,42,VALID,0.009375,
2009-03-02, 03:10:04,VALID,1006.89,VALID,0,VALID,92.4775,VALID,0,VALID,24.1404,VALID,42,VALID,0.136328,
2009-03-02, 03:11:04,VALID,1006.89,VALID,0,VALID,92.5156,VALID,0,VALID,24.1617,VALID,40,VALID,0.322266,
2009-03-02, 03:12:04,VALID,1006.89,VALID,0,VALID,92.5461,VALID,0,VALID,24.1404,VALID,53,VALID,0.308984,
2009-03-02, 03:13:04,VALID,1006.92,VALID,0,VALID,92.5614,VALID,0,VALID,24.1227,VALID,52,VALID,0.16875,
2009-03-02, 03:14:04,VALID,1006.91,VALID,0,VALID,92.5766,VALID,0,VALID,24.1227,VALID,52,VALID,0.573828,
2009-03-02, 03:15:04,VALID,1006.91,VALID,0,VALID,92.5995,VALID,0,VALID,24.1032,VALID,38,VALID,0.133594,
2009-03-02, 03:16:04,VALID,1006.9,VALID,0,VALID,92.6148,VALID,0,VALID,24.0837,VALID,38,VALID,0.170703,
2009-03-02, 03:17:04,VALID,1006.87,VALID,0,VALID,92.6148,VALID,0,VALID,24.0624,VALID,38,VALID,0.357422,
2009-03-02, 03:18:04,VALID,1006.9,VALID,0,VALID,92.6529,VALID,0,VALID,24.0837,VALID,40,VALID,0.614844,
2009-03-02, 03:19:04,VALID,1006.88,VALID,0,VALID,92.6834,VALID,0,VALID,24.0448,VALID,39,VALID,0.457812,
2009-03-02, 03:20:04,VALID,1006.88,VALID,0,VALID,92.7139,VALID,0,VALID,24.0448,VALID,39,VALID,0.251172,
2009-03-02, 03:21:04,VALID,1006.89,VALID,0,VALID,92.7368,VALID,0,VALID,24.0448,VALID,47,VALID,0.432422,
2009-03-02, 03:22:04,VALID,1006.9,VALID,0,VALID,92.7444,VALID,0,VALID,24.0253,VALID,65,VALID,0.264844,
2009-03-02, 03:23:04,VALID,1006.87,VALID,0,VALID,92.7902,VALID,0,VALID,24.0253,VALID,59,VALID,0.409375,
2009-03-02, 03:24:04,VALID,1006.9,VALID,0,VALID,92.813,VALID,0,VALID,24.0058,VALID,56,VALID,0.0121094,
2009-03-02, 03:25:04,VALID,1006.88,VALID,0,VALID,92.8588,VALID,0,VALID,24.0058,VALID,75,VALID,0.526953,
2009-03-02, 03:26:04,VALID,1006.86,VALID,0,VALID,92.8588,VALID,0,VALID,23.9863,VALID,66,VALID,0.700391,
2009-03-02, 03:27:04,VALID,1006.84,VALID,0,VALID,92.8741,VALID,0,VALID,23.9668,VALID,70,VALID,0.505469,
2009-03-02, 03:28:04,VALID,1006.82,VALID,0,VALID,92.8969,VALID,0,VALID,23.9668,VALID,70,VALID,0.342969,
2009-03-02, 03:29:04,VALID,1006.84,VALID,0,VALID,92.9046,VALID,0,VALID,23.9473,VALID,77,VALID,0.470703,
2009-03-02, 03:30:04,VALID,1006.82,VALID,0,VALID,92.9351,VALID,0,VALID,23.9473,VALID,26,VALID,0.271484,
2009-03-02, 03:31:04,VALID,1006.87,VALID,0,VALID,92.9732,VALID,0,VALID,23.9473,VALID,39,VALID,0.919141,
2009-03-02, 03:32:04,VALID,1006.87,VALID,0,VALID,92.9579,VALID,0.105969,VALID,23.926,VALID,75,VALID,0.289844,
2009-03-02, 03:33:04,VALID,1006.85,VALID,0,VALID,92.9656,VALID,0,VALID,23.9278,VALID,34,VALID,0.594531,
2009-03-02, 03:34:04,VALID,1006.87,VALID,0,VALID,92.9732,VALID,0,VALID,23.9278,VALID,38,VALID,0.406641,
2009-03-02, 03:35:04,VALID,1006.88,VALID,0,VALID,92.9732,VALID,0,VALID,23.9278,VALID,24,VALID,0.065625,
2009-03-02, 03:36:04,VALID,1006.88,VALID,0,VALID,92.9961,VALID,0,VALID,23.9278,VALID,33,VALID,0.159766,
2009-03-02, 03:37:04,VALID,1006.85,VALID,0,VALID,93.0189,VALID,0,VALID,23.9278,VALID,37,VALID,0.142578,
2009-03-02, 03:38:04,VALID,1006.86,VALID,0,VALID,93.0113,VALID,0,VALID,23.9065,VALID,45,VALID,0.139844,
2009-03-02, 03:39:04,VALID,1006.9,VALID,0,VALID,93.0266,VALID,0,VALID,23.9084,VALID,45,VALID,0.0503906,
2009-03-02, 03:40:04,VALID,1006.9,VALID,0,VALID,93.0342,VALID,0,VALID,23.9084,VALID,45,VALID,0,
2009-03-02, 03:41:04,VALID,1006.92,VALID,0,VALID,93.0189,VALID,0,VALID,23.9278,VALID,83,VALID,0.573047,
2009-03-02, 03:42:04,VALID,1006.97,VALID,0,VALID,92.9884,VALID,0,VALID,23.8871,VALID,67,VALID,0.172656,
2009-03-02, 03:43:04,VALID,1006.94,VALID,0,VALID,92.9961,VALID,0,VALID,23.8889,VALID,350,VALID,0,
2009-03-02, 03:44:04,VALID,1007.01,VALID,0,VALID,92.9808,VALID,0,VALID,23.8871,VALID,55,VALID,0.304688,
2009-03-02, 03:45:04,VALID,1007,VALID,0,VALID,92.9808,VALID,0,VALID,23.9084,VALID,89,VALID,0.5625,
2009-03-02, 03:46:04,VALID,1007.02,VALID,0,VALID,92.9732,VALID,0,VALID,23.9084,VALID,101,VALID,0.377734,
2009-03-02, 03:47:04,VALID,1007.04,VALID,0,VALID,92.9579,VALID,0,VALID,23.9084,VALID,135,VALID,0.332422,
2009-03-02, 03:48:04,VALID,1007.06,VALID,0,VALID,92.9122,VALID,0,VALID,23.9084,VALID,100,VALID,0.470703,
2009-03-02, 03:49:04,VALID,1007.04,VALID,0,VALID,92.8969,VALID,0,VALID,23.9278,VALID,79,VALID,0.703906,